Time,TemperatureF,DewpointF,PressureIn,WindDirection,WindDirectionDegrees,WindSpeedMPH,WindSpeedGustMPH,Humidity,HourlyPrecipIn,Conditions,Clouds,dailyrainin,SoftwareType,DateUTC
2013-05-24 00:02:00,59.7,58.8,30.14,North,0,0.0,0.0,97,0.00,,,0.26,WUHU216EASYWX,2013-05-24 05:02:00,
2013-05-24 00:07:00,59.7,58.8,30.14,North,0,0.0,0.0,97,0.00,,,0.00,WUHU216EASYWX,2013-05-24 05:07:00,
2013-05-24 00:13:00,59.4,58.5,30.14,North,0,0.0,0.0,97,0.00,,,0.00,WUHU216EASYWX,2013-05-24 05:13:00,
2013-05-24 00:18:00,59.4,58.5,30.13,North,0,0.0,0.0,97,0.00,,,0.00,WUHU216EASYWX,2013-05-24 05:18:00,
2013-05-24 00:23:00,59.4,58.5,30.13,NE,45,0.7,0.7,97,0.00,,,0.00,WUHU216EASYWX,2013-05-24 05:23:00,
2013-05-24 00:28:00,59.4,58.5,30.13,North,0,0.0,0.0,97,0.00,,,0.00,WUHU216EASYWX,2013-05-24 05:28:00,
2013-05-24 00:33:00,59.2,58.3,30.13,North,0,0.0,0.0,97,0.00,,,0.00,WUHU216EASYWX,2013-05-24 05:33:00,
2013-05-24 00:38:00,59.4,58.8,30.13,NE,45,0.7,0.7,98,0.00,,,0.00,WUHU216EASYWX,2013-05-24 05:38:00,
2013-05-24 00:43:00,59.7,59.2,30.13,North,0,0.0,0.0,98,0.00,,,0.00,WUHU216EASYWX,2013-05-24 05:43:00,
2013-05-24 00:48:00,60.1,59.5,30.12,NE,45,0.7,0.7,98,0.00,,,0.00,WUHU216EASYWX,2013-05-24 05:48:00,
2013-05-24 00:53:00,60.3,59.7,30.12,North,0,0.0,0.0,98,0.00,,,0.00,WUHU216EASYWX,2013-05-24 05:53:00,
2013-05-24 00:58:00,60.4,59.9,30.12,North,0,0.0,0.0,98,0.00,,,0.00,WUHU216EASYWX,2013-05-24 05:58:00,
2013-05-24 01:03:00,60.6,60.1,30.13,NE,45,0.7,0.7,98,0.00,,,0.00,WUHU216EASYWX,2013-05-24 06:03:00,
2013-05-24 01:08:00,60.6,60.1,30.13,East,90,0.7,0.7,98,0.00,,,0.00,WUHU216EASYWX,2013-05-24 06:08:00,
2013-05-24 01:13:00,60.8,60.3,30.13,NE,45,1.6,1.6,98,0.00,,,0.00,WUHU216EASYWX,2013-05-24 06:13:00,
2013-05-24 01:18:00,60.8,60.3,30.13,East,90,0.7,0.7,98,0.00,,,0.00,WUHU216EASYWX,2013-05-24 06:18:00,
2013-05-24 01:23:00,61.0,60.4,30.13,NE,45,0.7,0.7,98,0.00,,,0.00,WUHU216EASYWX,2013-05-24 06:23:00,
2013-05-24 01:28:00,61.0,60.4,30.13,North,0,0.0,0.0,98,0.00,,,0.00,WUHU216EASYWX,2013-05-24 06:28:00,
2013-05-24 01:33:00,61.0,60.4,30.13,North,0,0.0,0.0,98,0.00,,,0.00,WUHU216EASYWX,2013-05-24 06:33:00,
2013-05-24 01:38:00,60.8,60.3,30.13,South,180,0.7,0.7,98,0.00,,,0.00,WUHU216EASYWX,2013-05-24 06:38:00,
2013-05-24 01:43:00,60.8,59.9,30.13,NE,45,1.6,1.6,97,0.00,,,0.00,WUHU216EASYWX,2013-05-24 06:43:00,
2013-05-24 01:48:00,60.8,59.9,30.13,NE,45,1.6,1.6,97,0.00,,,0.00,WUHU216EASYWX,2013-05-24 06:48:00,
2013-05-24 01:53:00,60.8,59.7,30.13,North,0,0.0,0.0,96,0.00,,,0.00,WUHU216EASYWX,2013-05-24 06:53:00,
2013-05-24 01:58:00,60.8,59.7,30.13,NE,45,0.7,0.7,96,0.00,,,0.00,WUHU216EASYWX,2013-05-24 06:58:00,
2013-05-24 02:03:00,60.8,59.4,30.13,NE,45,1.6,1.6,95,0.00,,,0.00,WUHU216EASYWX,2013-05-24 07:03:00,
2013-05-24 02:08:00,60.8,59.4,30.12,NE,45,1.6,1.6,95,0.00,,,0.00,WUHU216EASYWX,2013-05-24 07:08:00,
2013-05-24 02:13:00,61.0,59.4,30.12,East,90,0.7,0.7,94,0.00,,,0.00,WUHU216EASYWX,2013-05-24 07:13:00,
2013-05-24 02:18:00,61.0,59.4,30.12,SE,135,1.6,1.6,94,0.00,,,0.00,WUHU216EASYWX,2013-05-24 07:18:00,
2013-05-24 02:23:00,61.2,59.2,30.13,NE,45,0.7,0.7,93,0.00,,,0.00,WUHU216EASYWX,2013-05-24 07:23:00,
2013-05-24 02:28:00,61.2,59.2,30.12,NE,45,1.6,1.6,93,0.00,,,0.00,WUHU216EASYWX,2013-05-24 07:28:00,
2013-05-24 02:33:00,61.0,59.0,30.13,North,0,3.1,3.1,93,0.00,,,0.00,WUHU216EASYWX,2013-05-24 07:33:00,
2013-05-24 02:38:00,61.2,59.2,30.13,East,90,1.6,1.6,93,0.00,,,0.00,WUHU216EASYWX,2013-05-24 07:38:00,
2013-05-24 02:43:00,61.2,59.2,30.13,North,0,0.7,0.7,93,0.00,,,0.00,WUHU216EASYWX,2013-05-24 07:43:00,
2013-05-24 02:48:00,61.0,58.6,30.13,North,0,0.7,0.7,92,0.00,,,0.00,WUHU216EASYWX,2013-05-24 07:48:00,
2013-05-24 02:53:00,61.0,58.6,30.13,NE,45,0.7,0.7,92,0.00,,,0.00,WUHU216EASYWX,2013-05-24 07:53:00,
2013-05-24 02:58:00,61.0,58.6,30.13,North,0,0.0,0.0,92,0.00,,,0.00,WUHU216EASYWX,2013-05-24 07:58:00,
2013-05-24 03:03:00,61.0,58.6,30.13,NE,45,0.7,0.7,92,0.00,,,0.00,WUHU216EASYWX,2013-05-24 08:03:00,
2013-05-24 03:08:00,61.0,58.6,30.13,SE,135,1.6,1.6,92,0.00,,,0.00,WUHU216EASYWX,2013-05-24 08:08:00,
2013-05-24 03:13:00,61.0,58.6,30.13,North,0,0.0,0.0,92,0.00,,,0.00,WUHU216EASYWX,2013-05-24 08:13:00,
2013-05-24 03:18:00,60.8,58.5,30.13,North,0,0.0,0.0,92,0.00,,,0.00,WUHU216EASYWX,2013-05-24 08:18:00,
2013-05-24 03:23:00,60.8,58.8,30.13,NE,45,3.1,3.1,93,0.00,,,0.00,WUHU216EASYWX,2013-05-24 08:23:00,
2013-05-24 03:28:00,60.8,58.8,30.13,NE,45,2.2,2.2,93,0.00,,,0.00,WUHU216EASYWX,2013-05-24 08:28:00,
2013-05-24 03:33:00,60.8,58.8,30.13,North,0,0.7,0.7,93,0.00,,,0.00,WUHU216EASYWX,2013-05-24 08:33:00,
2013-05-24 03:38:00,60.8,58.5,30.13,North,0,0.0,0.0,92,0.00,,,0.00,WUHU216EASYWX,2013-05-24 08:38:00,
2013-05-24 03:43:00,60.8,58.5,30.13,West,270,0.7,0.7,92,0.00,,,0.00,WUHU216EASYWX,2013-05-24 08:43:00,
2013-05-24 03:48:00,60.8,58.5,30.14,East,90,0.7,0.7,92,0.00,,,0.00,WUHU216EASYWX,2013-05-24 08:48:00,
2013-05-24 03:53:00,60.8,58.5,30.14,NE,45,2.2,2.2,92,0.00,,,0.00,WUHU216EASYWX,2013-05-24 08:53:00,
2013-05-24 03:58:00,60.8,58.5,30.14,NE,45,0.7,0.7,92,0.00,,,0.00,WUHU216EASYWX,2013-05-24 08:58:00,
2013-05-24 04:03:00,60.8,58.3,30.14,NE,45,1.6,1.6,91,0.00,,,0.00,WUHU216EASYWX,2013-05-24 09:03:00,
2013-05-24 04:08:00,60.8,58.3,30.13,NE,45,1.6,1.6,91,0.00,,,0.00,WUHU216EASYWX,2013-05-24 09:08:00,
2013-05-24 04:13:00,60.8,58.3,30.14,NE,45,1.6,1.6,91,0.00,,,0.00,WUHU216EASYWX,2013-05-24 09:13:00,
2013-05-24 04:18:00,60.8,58.3,30.14,North,0,0.7,0.7,91,0.00,,,0.00,WUHU216EASYWX,2013-05-24 09:18:00,
2013-05-24 04:23:00,60.6,58.1,30.15,NE,45,0.7,0.7,91,0.00,,,0.00,WUHU216EASYWX,2013-05-24 09:23:00,
2013-05-24 04:28:00,60.4,57.9,30.15,North,0,0.0,0.0,91,0.00,,,0.00,WUHU216EASYWX,2013-05-24 09:28:00,
2013-05-24 04:33:00,60.4,57.9,30.15,NE,45,1.6,1.6,91,0.00,,,0.00,WUHU216EASYWX,2013-05-24 09:33:00,
2013-05-24 04:38:00,60.4,57.9,30.16,NE,45,0.7,0.7,91,0.00,,,0.00,WUHU216EASYWX,2013-05-24 09:38:00,
2013-05-24 04:43:00,60.4,57.9,30.16,NE,45,1.6,1.6,91,0.00,,,0.00,WUHU216EASYWX,2013-05-24 09:43:00,
2013-05-24 04:48:00,60.4,57.9,30.16,NE,45,0.7,0.7,91,0.00,,,0.00,WUHU216EASYWX,2013-05-24 09:48:00,
2013-05-24 04:53:00,60.3,57.7,30.16,North,0,0.0,0.0,91,0.00,,,0.00,WUHU216EASYWX,2013-05-24 09:53:00,
2013-05-24 04:58:00,60.3,57.7,30.16,North,0,0.0,0.0,91,0.00,,,0.00,WUHU216EASYWX,2013-05-24 09:58:00,
2013-05-24 05:03:00,60.3,57.9,30.16,NE,45,0.7,0.7,92,0.00,,,0.00,WUHU216EASYWX,2013-05-24 10:03:00,
2013-05-24 05:08:00,60.1,57.7,30.16,East,90,0.7,0.7,92,0.00,,,0.00,WUHU216EASYWX,2013-05-24 10:08:00,
2013-05-24 05:13:00,59.9,57.6,30.16,East,90,0.7,0.7,92,0.01,,,0.00,WUHU216EASYWX,2013-05-24 10:13:00,
2013-05-24 05:18:00,59.7,57.4,30.16,NW,315,0.7,0.7,92,0.01,,,0.01,WUHU216EASYWX,2013-05-24 10:18:00,
2013-05-24 05:23:00,59.7,57.7,30.16,North,0,0.7,0.7,93,0.01,,,0.01,WUHU216EASYWX,2013-05-24 10:23:00,
2013-05-24 05:28:00,59.7,57.7,30.16,NW,315,0.7,0.7,93,0.01,,,0.01,WUHU216EASYWX,2013-05-24 10:28:00,
2013-05-24 05:33:00,59.7,57.7,30.16,NE,45,1.6,1.6,93,0.01,,,0.01,WUHU216EASYWX,2013-05-24 10:33:00,
2013-05-24 05:38:00,59.7,57.7,30.17,NE,45,1.6,1.6,93,0.01,,,0.01,WUHU216EASYWX,2013-05-24 10:38:00,
2013-05-24 05:43:00,59.7,57.7,30.16,NE,45,2.2,2.2,93,0.01,,,0.01,WUHU216EASYWX,2013-05-24 10:43:00,
2013-05-24 05:48:00,59.7,57.7,30.16,North,0,0.7,0.7,93,0.01,,,0.01,WUHU216EASYWX,2013-05-24 10:48:00,
2013-05-24 05:53:00,59.7,57.4,30.16,East,90,0.7,0.7,92,0.01,,,0.01,WUHU216EASYWX,2013-05-24 10:53:00,
2013-05-24 05:58:00,59.7,57.4,30.16,SE,135,2.2,2.2,92,0.01,,,0.01,WUHU216EASYWX,2013-05-24 10:58:00,
2013-05-24 06:03:00,59.7,57.4,30.16,North,0,0.0,0.0,92,0.01,,,0.01,WUHU216EASYWX,2013-05-24 11:03:00,
2013-05-24 06:08:00,59.5,57.2,30.16,NE,45,1.6,1.6,92,0.01,,,0.01,WUHU216EASYWX,2013-05-24 11:08:00,
2013-05-24 06:13:00,59.7,57.4,30.16,NE,45,2.2,2.2,92,0.00,,,0.01,WUHU216EASYWX,2013-05-24 11:13:00,
2013-05-24 06:18:00,59.7,57.4,30.16,NE,45,0.7,0.7,92,0.00,,,0.01,WUHU216EASYWX,2013-05-24 11:18:00,
2013-05-24 06:23:00,59.5,57.2,30.17,East,90,1.6,1.6,92,0.00,,,0.01,WUHU216EASYWX,2013-05-24 11:23:00,
2013-05-24 06:28:00,59.5,57.2,30.17,North,0,2.2,2.2,92,0.00,,,0.01,WUHU216EASYWX,2013-05-24 11:28:00,
2013-05-24 06:33:00,59.7,57.4,30.17,North,0,1.6,1.6,92,0.00,,,0.01,WUHU216EASYWX,2013-05-24 11:33:00,
2013-05-24 06:38:00,59.7,57.2,30.17,NE,45,1.6,1.6,91,0.00,,,0.01,WUHU216EASYWX,2013-05-24 11:38:00,
2013-05-24 06:43:00,59.7,57.2,30.18,North,0,0.0,0.0,91,0.00,,,0.01,WUHU216EASYWX,2013-05-24 11:43:00,
2013-05-24 06:48:00,59.7,57.2,30.17,North,0,1.6,1.6,91,0.00,,,0.01,WUHU216EASYWX,2013-05-24 11:48:00,
2013-05-24 06:53:00,59.9,57.4,30.18,NE,45,2.2,2.2,91,0.00,,,0.01,WUHU216EASYWX,2013-05-24 11:53:00,
2013-05-24 06:58:00,60.1,57.6,30.18,NE,45,0.7,0.7,91,0.00,,,0.01,WUHU216EASYWX,2013-05-24 11:58:00,
2013-05-24 07:03:00,60.3,57.4,30.18,NW,315,1.6,1.6,90,0.00,,,0.01,WUHU216EASYWX,2013-05-24 12:03:00,
2013-05-24 07:08:00,60.3,57.4,30.18,North,0,0.7,0.7,90,0.00,,,0.01,WUHU216EASYWX,2013-05-24 12:08:00,
2013-05-24 07:13:00,60.8,57.6,30.18,NE,45,1.6,1.6,89,0.00,,,0.01,WUHU216EASYWX,2013-05-24 12:13:00,
2013-05-24 07:18:00,61.2,57.9,30.18,North,0,2.2,2.2,89,0.00,,,0.01,WUHU216EASYWX,2013-05-24 12:18:00,
2013-05-24 07:23:00,61.5,57.9,30.19,NE,45,0.7,0.7,88,0.00,,,0.01,WUHU216EASYWX,2013-05-24 12:23:00,
2013-05-24 07:28:00,61.9,58.3,30.19,NE,45,0.7,0.7,88,0.00,,,0.01,WUHU216EASYWX,2013-05-24 12:28:00,
2013-05-24 07:33:00,62.4,58.3,30.19,NW,315,1.6,1.6,86,0.00,,,0.01,WUHU216EASYWX,2013-05-24 12:33:00,
2013-05-24 07:38:00,62.6,58.1,30.19,SE,135,2.2,2.2,85,0.00,,,0.01,WUHU216EASYWX,2013-05-24 12:38:00,
2013-05-24 07:43:00,63.0,58.5,30.19,SE,135,1.6,1.6,85,0.00,,,0.01,WUHU216EASYWX,2013-05-24 12:43:00,
2013-05-24 07:48:00,63.3,58.5,30.19,NE,45,0.7,0.7,84,0.00,,,0.01,WUHU216EASYWX,2013-05-24 12:48:00,
2013-05-24 07:53:00,63.5,58.3,30.19,East,90,1.6,1.6,83,0.00,,,0.01,WUHU216EASYWX,2013-05-24 12:53:00,
2013-05-24 07:58:00,63.7,58.5,30.19,East,90,0.7,0.7,83,0.00,,,0.01,WUHU216EASYWX,2013-05-24 12:58:00,
2013-05-24 08:03:00,64.2,58.6,30.20,NE,45,0.7,0.7,82,0.00,,,0.01,WUHU216EASYWX,2013-05-24 13:03:00,
2013-05-24 08:08:00,64.4,58.8,30.20,East,90,1.6,1.6,82,0.00,,,0.01,WUHU216EASYWX,2013-05-24 13:08:00,
2013-05-24 08:13:00,64.8,58.5,30.19,East,90,3.1,3.1,80,0.00,,,0.01,WUHU216EASYWX,2013-05-24 13:13:00,
2013-05-24 08:18:00,65.8,59.2,30.19,NW,315,2.2,2.2,79,0.00,,,0.01,WUHU216EASYWX,2013-05-24 13:18:00,
2013-05-24 08:23:00,66.2,58.8,30.20,East,90,4.5,4.5,77,0.00,,,0.01,WUHU216EASYWX,2013-05-24 13:23:00,
2013-05-24 08:28:00,66.9,59.5,30.20,South,180,1.6,1.6,77,0.00,,,0.01,WUHU216EASYWX,2013-05-24 13:28:00,
2013-05-24 08:33:00,67.5,59.7,30.21,SE,135,2.2,2.2,76,0.00,,,0.01,WUHU216EASYWX,2013-05-24 13:33:00,
2013-05-24 08:38:00,67.5,59.7,30.21,East,90,2.2,2.2,76,0.00,,,0.01,WUHU216EASYWX,2013-05-24 13:38:00,
2013-05-24 08:43:00,67.6,59.2,30.21,SE,135,6.0,6.0,74,0.00,,,0.01,WUHU216EASYWX,2013-05-24 13:43:00,
2013-05-24 08:48:00,67.6,59.2,30.21,SE,135,5.4,5.4,74,0.00,,,0.01,WUHU216EASYWX,2013-05-24 13:48:00,
2013-05-24 08:53:00,67.8,59.4,30.21,East,90,3.8,3.8,74,0.00,,,0.01,WUHU216EASYWX,2013-05-24 13:53:00,
2013-05-24 08:58:00,67.3,59.2,30.21,SE,135,3.8,3.8,75,0.00,,,0.01,WUHU216EASYWX,2013-05-24 13:58:00,
2013-05-24 09:03:00,67.5,59.0,30.21,SE,135,5.4,5.4,74,0.00,,,0.01,WUHU216EASYWX,2013-05-24 14:03:00,
2013-05-24 09:08:00,67.6,59.5,30.21,East,90,6.0,6.0,75,0.00,,,0.01,WUHU216EASYWX,2013-05-24 14:08:00,
2013-05-24 09:13:00,67.5,59.4,30.21,East,90,5.4,5.4,75,0.00,,,0.01,WUHU216EASYWX,2013-05-24 14:13:00,
2013-05-24 09:18:00,67.6,59.2,30.21,East,90,6.9,6.9,74,0.00,,,0.01,WUHU216EASYWX,2013-05-24 14:18:00,
2013-05-24 09:23:00,68.2,59.5,30.21,SE,135,4.5,4.5,74,0.00,,,0.01,WUHU216EASYWX,2013-05-24 14:23:00,
2013-05-24 09:28:00,68.2,59.2,30.21,SE,135,8.3,8.3,73,0.00,,,0.01,WUHU216EASYWX,2013-05-24 14:28:00,
2013-05-24 09:33:00,68.4,59.7,30.21,East,90,3.1,3.1,74,0.00,,,0.01,WUHU216EASYWX,2013-05-24 14:33:00,
2013-05-24 09:38:00,68.7,59.7,30.21,East,90,6.0,6.0,73,0.00,,,0.01,WUHU216EASYWX,2013-05-24 14:38:00,
2013-05-24 09:43:00,69.3,60.3,30.21,SE,135,4.5,4.5,73,0.00,,,0.01,WUHU216EASYWX,2013-05-24 14:43:00,
2013-05-24 09:48:00,70.0,60.6,30.21,South,180,4.5,4.5,72,0.00,,,0.01,WUHU216EASYWX,2013-05-24 14:48:00,
2013-05-24 09:53:00,69.8,60.4,30.21,East,90,5.4,5.4,72,0.00,,,0.01,WUHU216EASYWX,2013-05-24 14:53:00,
2013-05-24 09:58:00,70.0,60.3,30.20,East,90,6.0,6.0,71,0.00,,,0.01,WUHU216EASYWX,2013-05-24 14:58:00,
2013-05-24 10:03:00,70.5,60.3,30.21,SE,135,6.0,6.0,70,0.00,,,0.01,WUHU216EASYWX,2013-05-24 15:03:00,
2013-05-24 10:08:00,70.5,60.8,30.20,NE,45,4.5,4.5,71,0.00,,,0.01,WUHU216EASYWX,2013-05-24 15:08:00,
2013-05-24 10:13:00,71.1,60.8,30.20,East,90,4.5,4.5,70,0.00,,,0.01,WUHU216EASYWX,2013-05-24 15:13:00,
2013-05-24 10:18:00,71.6,61.3,30.20,SSE,158,3.1,3.1,70,0.00,,,0.01,WUHU216EASYWX,2013-05-24 15:18:00,
2013-05-24 10:23:00,72.1,61.5,30.20,East,90,7.6,7.6,69,0.00,,,0.01,WUHU216EASYWX,2013-05-24 15:23:00,
2013-05-24 10:28:00,71.2,60.6,30.19,East,90,6.9,6.9,69,0.00,,,0.01,WUHU216EASYWX,2013-05-24 15:28:00,
2013-05-24 10:33:00,71.4,61.2,30.19,SE,135,5.4,5.4,70,0.00,,,0.01,WUHU216EASYWX,2013-05-24 15:33:00,
2013-05-24 10:38:00,71.6,61.0,30.19,SE,135,6.0,6.0,69,0.00,,,0.01,WUHU216EASYWX,2013-05-24 15:38:00,
2013-05-24 10:43:00,71.8,61.5,30.19,East,90,6.9,6.9,70,0.00,,,0.01,WUHU216EASYWX,2013-05-24 15:43:00,
2013-05-24 10:48:00,72.1,61.0,30.19,SE,135,4.5,4.5,68,0.00,,,0.01,WUHU216EASYWX,2013-05-24 15:48:00,
2013-05-24 10:53:00,72.7,61.2,30.19,East,90,3.1,3.1,67,0.00,,,0.01,WUHU216EASYWX,2013-05-24 15:53:00,
2013-05-24 10:58:00,73.2,61.2,30.20,South,180,3.8,3.8,66,0.00,,,0.01,WUHU216EASYWX,2013-05-24 15:58:00,
2013-05-24 11:03:00,72.9,60.8,30.21,East,90,3.8,3.8,66,0.00,,,0.01,WUHU216EASYWX,2013-05-24 16:03:00,
2013-05-24 11:08:00,72.9,61.3,30.20,SE,135,3.8,3.8,67,0.00,,,0.01,WUHU216EASYWX,2013-05-24 16:08:00,
2013-05-24 11:13:00,73.9,61.5,30.20,SE,135,4.5,4.5,65,0.00,,,0.01,WUHU216EASYWX,2013-05-24 16:13:00,
2013-05-24 11:18:00,73.6,61.2,30.20,South,180,6.0,6.0,65,0.00,,,0.01,WUHU216EASYWX,2013-05-24 16:18:00,
2013-05-24 11:23:00,74.3,62.6,30.20,SE,135,3.8,3.8,67,0.00,,,0.01,WUHU216EASYWX,2013-05-24 16:23:00,
2013-05-24 11:28:00,74.7,62.2,30.20,South,180,3.8,3.8,65,0.00,,,0.01,WUHU216EASYWX,2013-05-24 16:28:00,
2013-05-24 11:33:00,74.7,61.7,30.20,South,180,4.5,4.5,64,0.00,,,0.01,WUHU216EASYWX,2013-05-24 16:33:00,
2013-05-24 11:38:00,74.3,62.2,30.20,East,90,6.0,6.0,66,0.00,,,0.01,WUHU216EASYWX,2013-05-24 16:38:00,
2013-05-24 11:43:00,74.3,61.9,30.20,SE,135,3.1,3.1,65,0.00,,,0.01,WUHU216EASYWX,2013-05-24 16:43:00,
2013-05-24 11:48:00,75.2,62.2,30.20,SE,135,5.4,5.4,64,0.00,,,0.01,WUHU216EASYWX,2013-05-24 16:48:00,
2013-05-24 11:53:00,75.2,62.2,30.20,East,90,4.5,4.5,64,0.00,,,0.01,WUHU216EASYWX,2013-05-24 16:53:00,
2013-05-24 11:58:00,75.4,61.9,30.20,East,90,5.4,5.4,63,0.00,,,0.01,WUHU216EASYWX,2013-05-24 16:58:00,
2013-05-24 12:03:00,75.0,62.4,30.20,East,90,3.8,3.8,65,0.00,,,0.01,WUHU216EASYWX,2013-05-24 17:03:00,
2013-05-24 12:08:00,75.2,62.2,30.20,South,180,4.5,4.5,64,0.00,,,0.01,WUHU216EASYWX,2013-05-24 17:08:00,
2013-05-24 12:13:00,75.6,61.7,30.20,SE,135,6.0,6.0,62,0.00,,,0.01,WUHU216EASYWX,2013-05-24 17:13:00,
2013-05-24 12:18:00,75.2,62.2,30.20,SE,135,5.4,5.4,64,0.00,,,0.01,WUHU216EASYWX,2013-05-24 17:18:00,
2013-05-24 12:23:00,75.4,62.8,30.20,SE,135,3.8,3.8,65,0.00,,,0.01,WUHU216EASYWX,2013-05-24 17:23:00,
2013-05-24 12:28:00,75.7,62.2,30.20,SE,135,5.4,5.4,63,0.00,,,0.01,WUHU216EASYWX,2013-05-24 17:28:00,
2013-05-24 12:33:00,75.6,62.6,30.19,South,180,3.8,3.8,64,0.00,,,0.01,WUHU216EASYWX,2013-05-24 17:33:00,
2013-05-24 12:38:00,76.3,62.8,30.20,East,90,5.4,5.4,63,0.00,,,0.01,WUHU216EASYWX,2013-05-24 17:38:00,
2013-05-24 12:43:00,76.6,63.1,30.19,East,90,3.1,3.1,63,0.00,,,0.01,WUHU216EASYWX,2013-05-24 17:43:00,
2013-05-24 12:48:00,77.2,64.0,30.20,SW,225,6.9,6.9,64,0.00,,,0.01,WUHU216EASYWX,2013-05-24 17:48:00,
2013-05-24 12:53:00,77.4,63.3,30.19,East,90,4.5,4.5,62,0.00,,,0.01,WUHU216EASYWX,2013-05-24 17:53:00,
2013-05-24 12:58:00,77.0,62.6,30.19,SE,135,7.6,7.6,61,0.00,,,0.01,WUHU216EASYWX,2013-05-24 17:58:00,
2013-05-24 13:03:00,76.8,63.3,30.19,SE,135,3.8,3.8,63,0.00,,,0.01,WUHU216EASYWX,2013-05-24 18:03:00,
2013-05-24 13:08:00,76.8,63.3,30.19,East,90,5.4,5.4,63,0.00,,,0.01,WUHU216EASYWX,2013-05-24 18:08:00,
2013-05-24 13:13:00,76.8,63.9,30.19,South,180,6.0,6.0,64,0.00,,,0.01,WUHU216EASYWX,2013-05-24 18:13:00,
2013-05-24 13:18:00,77.5,63.5,30.19,SE,135,6.9,6.9,62,0.00,,,0.01,WUHU216EASYWX,2013-05-24 18:18:00,
2013-05-24 13:23:00,77.4,63.3,30.19,East,90,6.0,6.0,62,0.00,,,0.01,WUHU216EASYWX,2013-05-24 18:23:00,
2013-05-24 13:28:00,77.5,63.5,30.19,East,90,7.6,7.6,62,0.00,,,0.01,WUHU216EASYWX,2013-05-24 18:28:00,
2013-05-24 13:33:00,77.5,64.0,30.19,SE,135,5.4,5.4,63,0.00,,,0.01,WUHU216EASYWX,2013-05-24 18:33:00,
2013-05-24 13:38:00,78.3,64.8,30.18,South,180,3.1,3.1,63,0.00,,,0.01,WUHU216EASYWX,2013-05-24 18:38:00,
2013-05-24 13:43:00,78.8,63.9,30.18,East,90,5.4,5.4,60,0.00,,,0.01,WUHU216EASYWX,2013-05-24 18:43:00,
2013-05-24 13:48:00,78.4,63.9,30.19,East,90,6.0,6.0,61,0.00,,,0.01,WUHU216EASYWX,2013-05-24 18:48:00,
2013-05-24 13:53:00,78.3,63.7,30.18,NE,45,4.5,4.5,61,0.00,,,0.01,WUHU216EASYWX,2013-05-24 18:53:00,
2013-05-24 13:58:00,78.8,64.2,30.18,SE,135,3.8,3.8,61,0.00,,,0.01,WUHU216EASYWX,2013-05-24 18:58:00,
2013-05-24 14:03:00,79.3,64.8,30.18,East,90,3.8,3.8,61,0.00,,,0.01,WUHU216EASYWX,2013-05-24 19:03:00,
2013-05-24 14:08:00,79.5,64.4,30.18,South,180,3.1,3.1,60,0.00,,,0.01,WUHU216EASYWX,2013-05-24 19:08:00,
2013-05-24 14:13:00,78.4,64.4,30.18,South,180,6.0,6.0,62,0.00,,,0.01,WUHU216EASYWX,2013-05-24 19:13:00,
2013-05-24 14:18:00,78.4,64.4,30.18,SE,135,6.9,6.9,62,0.00,,,0.01,WUHU216EASYWX,2013-05-24 19:18:00,
2013-05-24 14:23:00,79.0,64.9,30.18,SE,135,5.4,5.4,62,0.00,,,0.01,WUHU216EASYWX,2013-05-24 19:23:00,
2013-05-24 14:28:00,79.3,64.8,30.18,SW,225,3.1,3.1,61,0.00,,,0.01,WUHU216EASYWX,2013-05-24 19:28:00,
2013-05-24 14:33:00,78.8,64.2,30.18,SE,135,6.9,6.9,61,0.00,,,0.01,WUHU216EASYWX,2013-05-24 19:33:00,
2013-05-24 14:38:00,79.3,64.8,30.18,South,180,6.9,6.9,61,0.00,,,0.01,WUHU216EASYWX,2013-05-24 19:38:00,
2013-05-24 14:43:00,78.8,64.8,30.17,SE,135,5.4,5.4,62,0.00,,,0.01,WUHU216EASYWX,2013-05-24 19:43:00,
2013-05-24 14:48:00,79.3,64.8,30.17,East,90,9.2,9.2,61,0.00,,,0.01,WUHU216EASYWX,2013-05-24 19:48:00,
2013-05-24 14:53:00,79.5,64.9,30.17,SW,225,5.4,5.4,61,0.00,,,0.01,WUHU216EASYWX,2013-05-24 19:53:00,
2013-05-24 14:58:00,79.0,64.4,30.17,South,180,5.4,5.4,61,0.00,,,0.01,WUHU216EASYWX,2013-05-24 19:58:00,
2013-05-24 15:03:00,79.7,65.7,30.16,East,90,5.4,5.4,62,0.00,,,0.01,WUHU216EASYWX,2013-05-24 20:03:00,
2013-05-24 15:08:00,79.9,65.8,30.16,East,90,3.1,3.1,62,0.00,,,0.01,WUHU216EASYWX,2013-05-24 20:08:00,
2013-05-24 15:13:00,79.0,64.9,30.16,East,90,6.9,6.9,62,0.00,,,0.01,WUHU216EASYWX,2013-05-24 20:13:00,
2013-05-24 15:18:00,79.2,65.5,30.17,East,90,3.1,3.1,63,0.00,,,0.01,WUHU216EASYWX,2013-05-24 20:18:00,
2013-05-24 15:23:00,79.5,64.9,30.16,South,180,6.0,6.0,61,0.00,,,0.01,WUHU216EASYWX,2013-05-24 20:23:00,
2013-05-24 15:28:00,80.2,66.0,30.17,SE,135,4.5,4.5,62,0.00,,,0.01,WUHU216EASYWX,2013-05-24 20:28:00,
2013-05-24 15:33:00,79.7,65.1,30.16,South,180,6.0,6.0,61,0.00,,,0.01,WUHU216EASYWX,2013-05-24 20:33:00,
2013-05-24 15:38:00,79.0,64.9,30.16,SW,225,3.1,3.1,62,0.00,,,0.01,WUHU216EASYWX,2013-05-24 20:38:00,
2013-05-24 15:43:00,79.5,65.8,30.16,South,180,4.5,4.5,63,0.00,,,0.01,WUHU216EASYWX,2013-05-24 20:43:00,
2013-05-24 15:48:00,79.5,65.8,30.16,SE,135,4.5,4.5,63,0.00,,,0.01,WUHU216EASYWX,2013-05-24 20:48:00,
2013-05-24 15:53:00,79.7,65.7,30.15,SE,135,5.4,5.4,62,0.00,,,0.01,WUHU216EASYWX,2013-05-24 20:53:00,
2013-05-24 15:58:00,79.5,64.9,30.14,SE,135,6.0,6.0,61,0.00,,,0.01,WUHU216EASYWX,2013-05-24 20:58:00,
2013-05-24 16:03:00,79.5,65.5,30.14,SE,135,6.0,6.0,62,0.00,,,0.01,WUHU216EASYWX,2013-05-24 21:03:00,
2013-05-24 16:08:00,79.5,65.5,30.14,East,90,3.8,3.8,62,0.00,,,0.01,WUHU216EASYWX,2013-05-24 21:08:00,
2013-05-24 16:13:00,79.9,66.2,30.14,East,90,5.4,5.4,63,0.00,,,0.01,WUHU216EASYWX,2013-05-24 21:13:00,
2013-05-24 16:18:00,79.5,65.5,30.14,East,90,8.3,8.3,62,0.00,,,0.01,WUHU216EASYWX,2013-05-24 21:18:00,
2013-05-24 16:23:00,79.2,65.5,30.14,East,90,6.9,6.9,63,0.00,,,0.01,WUHU216EASYWX,2013-05-24 21:23:00,
2013-05-24 16:28:00,79.0,65.3,30.14,East,90,6.9,6.9,63,0.00,,,0.01,WUHU216EASYWX,2013-05-24 21:28:00,
2013-05-24 16:33:00,79.0,65.3,30.14,East,90,3.8,3.8,63,0.00,,,0.01,WUHU216EASYWX,2013-05-24 21:33:00,
2013-05-24 16:38:00,79.3,66.2,30.13,SE,135,2.2,2.2,64,0.00,,,0.01,WUHU216EASYWX,2013-05-24 21:38:00,
2013-05-24 16:43:00,79.3,65.7,30.14,SE,135,3.8,3.8,63,0.00,,,0.01,WUHU216EASYWX,2013-05-24 21:43:00,
2013-05-24 16:48:00,79.2,65.5,30.13,SE,135,3.8,3.8,63,0.00,,,0.01,WUHU216EASYWX,2013-05-24 21:48:00,
2013-05-24 16:53:00,79.2,65.1,30.13,East,90,6.9,6.9,62,0.00,,,0.01,WUHU216EASYWX,2013-05-24 21:53:00,
2013-05-24 16:58:00,79.2,65.5,30.13,NE,45,2.2,2.2,63,0.00,,,0.01,WUHU216EASYWX,2013-05-24 21:58:00,
2013-05-24 17:03:00,79.2,65.5,30.13,East,90,3.8,3.8,63,0.00,,,0.01,WUHU216EASYWX,2013-05-24 22:03:00,
2013-05-24 17:08:00,79.2,65.5,30.13,SE,135,4.5,4.5,63,0.00,,,0.01,WUHU216EASYWX,2013-05-24 22:08:00,
2013-05-24 17:13:00,79.2,65.5,30.13,SE,135,7.6,7.6,63,0.00,,,0.01,WUHU216EASYWX,2013-05-24 22:13:00,
2013-05-24 17:18:00,79.2,65.5,30.13,East,90,5.4,5.4,63,0.00,,,0.01,WUHU216EASYWX,2013-05-24 22:18:00,
2013-05-24 17:23:00,79.3,65.7,30.13,East,90,5.4,5.4,63,0.00,,,0.01,WUHU216EASYWX,2013-05-24 22:23:00,
2013-05-24 17:28:00,79.2,65.1,30.12,East,90,7.6,7.6,62,0.00,,,0.01,WUHU216EASYWX,2013-05-24 22:28:00,
2013-05-24 17:33:00,79.2,65.5,30.12,NE,45,3.8,3.8,63,0.00,,,0.01,WUHU216EASYWX,2013-05-24 22:33:00,
2013-05-24 17:38:00,79.7,66.0,30.12,NE,45,3.1,3.1,63,0.00,,,0.01,WUHU216EASYWX,2013-05-24 22:38:00,
2013-05-24 17:43:00,79.3,65.7,30.12,East,90,5.4,5.4,63,0.00,,,0.01,WUHU216EASYWX,2013-05-24 22:43:00,
2013-05-24 17:48:00,78.8,65.7,30.12,South,180,6.0,6.0,64,0.00,,,0.01,WUHU216EASYWX,2013-05-24 22:48:00,
2013-05-24 17:54:00,79.0,65.8,30.12,East,90,4.5,4.5,64,0.00,,,0.01,WUHU216EASYWX,2013-05-24 22:54:00,
2013-05-24 17:59:00,79.7,66.0,30.12,SE,135,3.8,3.8,63,0.00,,,0.01,WUHU216EASYWX,2013-05-24 22:59:00,
2013-05-24 18:04:00,79.9,65.8,30.11,SE,135,4.5,4.5,62,0.00,,,0.01,WUHU216EASYWX,2013-05-24 23:04:00,
2013-05-24 18:09:00,79.5,65.5,30.11,SE,135,3.8,3.8,62,0.00,,,0.01,WUHU216EASYWX,2013-05-24 23:09:00,
2013-05-24 18:14:00,79.2,66.0,30.12,SW,225,3.8,3.8,64,0.00,,,0.01,WUHU216EASYWX,2013-05-24 23:14:00,
2013-05-24 18:19:00,79.0,65.8,30.11,South,180,4.5,4.5,64,0.00,,,0.01,WUHU216EASYWX,2013-05-24 23:19:00,
2013-05-24 18:24:00,79.0,65.8,30.11,SE,135,4.5,4.5,64,0.00,,,0.01,WUHU216EASYWX,2013-05-24 23:24:00,
2013-05-24 18:29:00,78.8,65.7,30.11,South,180,5.4,5.4,64,0.00,,,0.01,WUHU216EASYWX,2013-05-24 23:29:00,
2013-05-24 18:34:00,78.8,65.7,30.11,SE,135,4.5,4.5,64,0.00,,,0.01,WUHU216EASYWX,2013-05-24 23:34:00,
2013-05-24 18:39:00,78.8,65.7,30.11,SE,135,3.1,3.1,64,0.00,,,0.01,WUHU216EASYWX,2013-05-24 23:39:00,
2013-05-24 18:44:00,78.6,65.8,30.11,SE,135,3.8,3.8,65,0.00,,,0.01,WUHU216EASYWX,2013-05-24 23:44:00,
2013-05-24 18:49:00,78.4,65.8,30.11,SE,135,3.1,3.1,65,0.00,,,0.01,WUHU216EASYWX,2013-05-24 23:49:00,
2013-05-24 18:54:00,78.1,64.9,30.11,East,90,6.9,6.9,64,0.00,,,0.01,WUHU216EASYWX,2013-05-24 23:54:00,
2013-05-24 18:59:00,77.9,65.3,30.10,SE,135,4.5,4.5,65,0.00,,,0.01,WUHU216EASYWX,2013-05-24 23:59:00,
2013-05-24 19:04:00,77.9,65.3,30.10,SE,135,3.8,3.8,65,0.00,,,0.01,WUHU216EASYWX,2013-05-25 00:04:00,
2013-05-24 19:09:00,77.7,65.5,30.10,SE,135,3.1,3.1,66,0.00,,,0.01,WUHU216EASYWX,2013-05-25 00:09:00,
2013-05-24 19:14:00,77.9,65.7,30.10,East,90,4.5,4.5,66,0.00,,,0.01,WUHU216EASYWX,2013-05-25 00:14:00,
2013-05-24 19:19:00,77.7,66.0,30.10,East,90,3.1,3.1,67,0.00,,,0.01,WUHU216EASYWX,2013-05-25 00:19:00,
2013-05-24 19:24:00,77.5,65.3,30.11,South,180,3.8,3.8,66,0.00,,,0.01,WUHU216EASYWX,2013-05-25 00:24:00,
2013-05-24 19:29:00,77.5,65.3,30.11,South,180,3.8,6.9,66,0.00,,,0.01,WUHU216EASYWX,2013-05-25 00:29:00,
2013-05-24 19:34:00,77.2,64.9,30.10,SE,135,3.1,3.1,66,0.00,,,0.01,WUHU216EASYWX,2013-05-25 00:34:00,
2013-05-24 19:39:00,77.2,64.9,30.11,NW,315,3.8,3.8,66,0.00,,,0.01,WUHU216EASYWX,2013-05-25 00:39:00,
2013-05-24 19:44:00,77.2,64.9,30.11,East,90,3.8,3.8,66,0.00,,,0.01,WUHU216EASYWX,2013-05-25 00:44:00,
2013-05-24 19:49:00,77.0,65.3,30.11,East,90,3.8,4.5,67,0.00,,,0.01,WUHU216EASYWX,2013-05-25 00:49:00,
2013-05-24 19:54:00,76.8,64.6,30.11,SE,135,5.4,5.4,66,0.00,,,0.01,WUHU216EASYWX,2013-05-25 00:54:00,
2013-05-24 19:59:00,76.6,64.9,30.11,SE,135,3.8,3.8,67,0.00,,,0.01,WUHU216EASYWX,2013-05-25 00:59:00,
2013-05-24 20:04:00,76.6,64.9,30.11,SE,135,2.2,2.2,67,0.00,,,0.01,WUHU216EASYWX,2013-05-25 01:04:00,
2013-05-24 20:09:00,76.3,64.9,30.11,East,90,3.8,3.8,68,0.00,,,0.01,WUHU216EASYWX,2013-05-25 01:09:00,
2013-05-24 20:14:00,76.1,64.8,30.11,East,90,4.5,4.5,68,0.00,,,0.01,WUHU216EASYWX,2013-05-25 01:14:00,
2013-05-24 20:19:00,75.9,65.1,30.11,East,90,3.8,3.8,69,0.00,,,0.01,WUHU216EASYWX,2013-05-25 01:19:00,
2013-05-24 20:24:00,75.7,64.9,30.11,East,90,3.1,3.1,69,0.00,,,0.01,WUHU216EASYWX,2013-05-25 01:24:00,
2013-05-24 20:29:00,75.6,65.1,30.11,SE,135,2.2,2.2,70,0.00,,,0.01,WUHU216EASYWX,2013-05-25 01:29:00,
2013-05-24 20:34:00,75.4,64.9,30.11,SE,135,3.1,3.1,70,0.00,,,0.01,WUHU216EASYWX,2013-05-25 01:34:00,
2013-05-24 20:39:00,75.2,64.8,30.11,East,90,2.2,2.2,70,0.00,,,0.01,WUHU216EASYWX,2013-05-25 01:39:00,
2013-05-24 20:44:00,75.2,64.8,30.11,East,90,2.2,6.0,70,0.00,,,0.01,WUHU216EASYWX,2013-05-25 01:44:00,
2013-05-24 20:49:00,74.8,64.4,30.11,ESE,113,3.8,3.8,70,0.00,,,0.01,WUHU216EASYWX,2013-05-25 01:49:00,
2013-05-24 20:54:00,74.8,64.4,30.11,South,180,3.8,3.8,70,0.00,,,0.01,WUHU216EASYWX,2013-05-25 01:54:00,
2013-05-24 20:59:00,74.7,64.2,30.12,East,90,4.5,4.5,70,0.00,,,0.01,WUHU216EASYWX,2013-05-25 01:59:00,
2013-05-24 21:04:00,74.7,64.2,30.11,NE,45,4.5,4.5,70,0.00,,,0.01,WUHU216EASYWX,2013-05-25 02:04:00,
2013-05-24 21:09:00,74.5,64.0,30.12,SE,135,3.8,3.8,70,0.00,,,0.01,WUHU216EASYWX,2013-05-25 02:09:00,
2013-05-24 21:14:00,74.3,63.9,30.12,SE,135,3.8,3.8,70,0.00,,,0.01,WUHU216EASYWX,2013-05-25 02:14:00,
2013-05-24 21:19:00,74.1,63.3,30.11,East,90,5.4,5.4,69,0.00,,,0.01,WUHU216EASYWX,2013-05-25 02:19:00,
2013-05-24 21:24:00,74.1,63.3,30.12,North,0,3.1,3.1,69,0.00,,,0.01,WUHU216EASYWX,2013-05-25 02:24:00,
2013-05-24 21:29:00,74.8,64.4,30.12,ENE,68,3.8,3.8,70,0.00,,,0.01,WUHU216EASYWX,2013-05-25 02:29:00,
2013-05-24 21:34:00,73.6,63.3,30.12,SE,135,3.8,3.8,70,0.00,,,0.01,WUHU216EASYWX,2013-05-25 02:34:00,
2013-05-24 21:39:00,75.6,64.8,30.13,SE,135,3.1,3.1,69,0.00,,,0.01,WUHU216EASYWX,2013-05-25 02:39:00,
2013-05-24 21:44:00,73.6,63.3,30.13,SE,135,5.4,5.4,70,0.00,,,0.01,WUHU216EASYWX,2013-05-25 02:44:00,
2013-05-24 21:49:00,75.4,64.9,30.13,SE,135,3.8,3.8,70,0.00,,,0.01,WUHU216EASYWX,2013-05-25 02:49:00,
2013-05-24 21:54:00,73.4,63.1,30.13,South,180,4.5,4.5,70,0.00,,,0.01,WUHU216EASYWX,2013-05-25 02:54:00,
2013-05-24 21:59:00,73.2,63.0,30.13,SE,135,5.4,5.4,70,0.00,,,0.01,WUHU216EASYWX,2013-05-25 02:59:00,
2013-05-24 22:04:00,73.2,63.0,30.13,SE,135,7.6,7.6,70,0.00,,,0.01,WUHU216EASYWX,2013-05-25 03:04:00,
2013-05-24 22:09:00,73.0,62.8,30.13,SE,135,5.4,5.4,70,0.00,,,0.01,WUHU216EASYWX,2013-05-25 03:09:00,
2013-05-24 22:14:00,73.0,62.8,30.13,SE,135,4.5,4.5,70,0.00,,,0.01,WUHU216EASYWX,2013-05-25 03:14:00,
2013-05-24 22:19:00,72.9,62.6,30.14,SE,135,5.4,5.4,70,0.00,,,0.01,WUHU216EASYWX,2013-05-25 03:19:00,
2013-05-24 22:24:00,72.7,62.4,30.14,SE,135,7.6,7.6,70,0.00,,,0.01,WUHU216EASYWX,2013-05-25 03:24:00,
2013-05-24 22:29:00,72.7,62.4,30.14,South,180,6.0,6.0,70,0.00,,,0.01,WUHU216EASYWX,2013-05-25 03:29:00,
2013-05-24 22:34:00,72.5,62.2,30.14,East,90,6.9,6.9,70,0.00,,,0.01,WUHU216EASYWX,2013-05-25 03:34:00,
2013-05-24 22:39:00,72.5,62.2,30.14,East,90,6.0,6.0,70,0.00,,,0.01,WUHU216EASYWX,2013-05-25 03:39:00,
2013-05-24 22:44:00,72.3,62.1,30.14,South,180,5.4,5.4,70,0.00,,,0.01,WUHU216EASYWX,2013-05-25 03:44:00,
2013-05-24 22:49:00,72.1,62.2,30.14,SE,135,5.4,5.4,71,0.00,,,0.01,WUHU216EASYWX,2013-05-25 03:49:00,
2013-05-24 22:54:00,72.0,62.1,30.14,SE,135,5.4,5.4,71,0.00,,,0.01,WUHU216EASYWX,2013-05-25 03:54:00,
2013-05-24 22:59:00,71.8,62.2,30.13,East,90,4.5,4.5,72,0.00,,,0.01,WUHU216EASYWX,2013-05-25 03:59:00,
2013-05-24 23:04:00,71.8,62.2,30.13,East,90,5.4,5.4,72,0.00,,,0.01,WUHU216EASYWX,2013-05-25 04:04:00,
2013-05-24 23:09:00,71.6,62.1,30.14,SE,135,6.9,6.9,72,0.00,,,0.01,WUHU216EASYWX,2013-05-25 04:09:00,
2013-05-24 23:14:00,71.6,62.1,30.14,NE,45,3.8,3.8,72,0.00,,,0.01,WUHU216EASYWX,2013-05-25 04:14:00,
2013-05-24 23:19:00,71.4,61.9,30.14,SE,135,3.1,3.1,72,0.00,,,0.01,WUHU216EASYWX,2013-05-25 04:19:00,
2013-05-24 23:24:00,71.4,61.9,30.13,South,180,5.4,5.4,72,0.00,,,0.01,WUHU216EASYWX,2013-05-25 04:24:00,
2013-05-24 23:29:00,71.2,61.9,30.14,SW,225,6.0,6.0,72,0.00,,,0.01,WUHU216EASYWX,2013-05-25 04:29:00,
2013-05-24 23:34:00,71.1,61.7,30.13,East,90,3.8,3.8,72,0.00,,,0.01,WUHU216EASYWX,2013-05-25 04:34:00,
2013-05-24 23:39:00,70.9,61.9,30.13,SE,135,5.4,5.4,73,0.00,,,0.01,WUHU216EASYWX,2013-05-25 04:39:00,
2013-05-24 23:44:00,70.9,61.9,30.13,NE,45,4.5,4.5,73,0.00,,,0.01,WUHU216EASYWX,2013-05-25 04:44:00,
2013-05-24 23:49:00,70.7,61.7,30.13,East,90,3.8,3.8,73,0.00,,,0.01,WUHU216EASYWX,2013-05-25 04:49:00,
2013-05-24 23:54:00,70.7,62.1,30.12,South,180,2.2,2.2,74,0.00,,,0.01,WUHU216EASYWX,2013-05-25 04:54:00,
2013-05-24 23:59:00,70.3,61.7,30.12,NE,45,4.5,4.5,74,0.00,,,0.01,WUHU216EASYWX,2013-05-25 04:59:00,